Location: Helsinki
(60.1699°N, 24.9384°E)
Time: 16:23:02
(UTC+02:00)

S-56A Canister/Altair - Pass Details

Date: 30 October 2020
Orbit: 633 x 2500 km, 38.9° (Epoch: 29 November)

Event Time Altitude Azimuth Distance (km) Brightness Sun altitude
Rises 10:08:49 0° 248° (WSW) 4,099 11.2 12.3°
Reaches altitude 10° 10:13:23 10° 222° (SW) 3,524 11.2 12.6°
Maximum altitude 10:17:07 13° 198° (SSW) 3,579 11.8 12.8°
Drops below altitude 10° 10:21:23 10° 174° (S) 4,155 12.9 13.0°
Sets 10:27:57 0° 152° (SSE) 5,583 14.0 13.4°
